Location: Kelshall
(52.0000°N, 0.0500°W)
Time: 21:29:52
(UTC+00:00)

ATLAS 2AS CENTAUR R/B - Pass Details

Date: 18 January 2021
Orbit: 947 x 1265 km, 63.7° (Epoch: 13 February)

Event Time Altitude Azimuth Distance (km) Brightness Sun altitude
Rises 21:32:39 0° 296° (WNW) 4,209 6.5 -46.0°
Reaches altitude 10° 21:35:49 10° 305° (NW) 3,218 5.7 -46.4°
Enters shadow 21:39:35 26° 327° (NNW) 2,213 4.6 -46.9°
